User: anonymous
Location: Heilwood
(40.6210°N, 78.9150°W)
Time: 12:01:27
(UTC-04:00)
Language:

BREEZE-M DEB (TANK) - Orbit

View from above orbital plane
View from above orbital plane
View from above satellite
View from above satellite

Ground track
Ground track

The orbit data is extracted from the following two-line orbital elements,

1 29649U 06056B   14233.43943529  .00003727  00000-0  48447-3 0  9875
2 29649 049.4938 263.8821 5428455 241.0914 332.9652 04.94409018136473
Epoch (UTC): 21 August 2014 10:32:47
Eccentricity: 0.5428455
inclination: 49.4938°
perigee height: 276 km
apogee height: 16078 km
right ascension of ascending node: 263.8821°
argument of perigee: 241.0914°
revolutions per day: 4.94409018
mean anomaly at epoch: 332.9652°
orbit number at epoch: 13647

The dashed part of the orbit path shows where the satellite is in the earth's shadow,  

DLR